Clinton, IA

7:49 AM CDT on April 23, 2017 (GMT -0500)
Clinton Municipal

Weather History for KCWI - November, 2013

Change the Weather History Date:

Monday, November 25, 2013

  Actual Average Record
Temperature  
Mean Temperature 26 °F -  
Max Temperature 33 °F 44 °F 62 °F (1976)
Min Temperature 19 °F 27 °F 2 °F (1950)
Degree Days  
Heating Degree Days 39    
Moisture  
Dew Point 19 °F    
Average Humidity 69    
Maximum Humidity 80    
Minimum Humidity 54    
Precipitation  
Precipitation 0.00 in - - ()
Sea Level Pressure  
Sea Level Pressure 30.18 in    
Wind  
Wind Speed 11 mph (SW)    
Max Wind Speed 22 mph    
Max Gust Speed 28 mph    
Visibility 10 miles    
Events      
Averages and records for this station are not official NWS values.
T = Trace of Precipitation, MM = Missing Value Source: NWS Daily Summary

Daily Weather History Graph

Daily Weather History Graph

Search for Another Location

Airport or City:

Trip Planner

Search our weather history database for the weather conditions in past years. The results will help you decide how hot, cold, wet, or windy it might be!

Date:

Astronomy

Nov. 25, 2013 Rise Set
Actual Time 7:02 AM CST 4:33 PM CST
Civil Twilight 6:32 AM CST 5:04 PM CST
Nautical Twilight 5:57 AM CST 5:38 PM CST
Astronomical Twilight 5:24 AM CST 6:11 PM CST
Moon No Moon Rise 12:16 PM CST (11/25)
Length of Visible Light 10h 31m
Length of Day
9h 30m
Waning Gibbous, 51% of the Moon is Illuminated
Nov 25
Waning Gibbous
Nov 25
Last Quarter
Dec 2
New
Dec 9
First Quarter
Dec 17
Full

Hourly Weather History & Observations

Time (CST) Temp. Windchill Dew Point Humidity Pressure Visibility Wind Dir Wind Speed Gust Speed Precip Events Conditions
12:15 AM 19.4 °F 9.5 °F 8.6 °F 63% 30.35 in 10.0 mi SSW 8.1 mph - N/A   Clear
12:35 AM 19.4 °F 8.6 °F 8.6 °F 63% 30.35 in 10.0 mi SSW 9.2 mph - N/A   Clear
12:55 AM 21.2 °F 11.7 °F 10.4 °F 63% 30.33 in 10.0 mi SSW 8.1 mph - N/A   Clear
1:15 AM 21.2 °F 10.9 °F 10.4 °F 63% 30.33 in 10.0 mi SSW 9.2 mph - N/A   Clear
1:35 AM 21.2 °F 10.1 °F 10.4 °F 63% 30.31 in 10.0 mi SSW 10.4 mph - N/A   Clear
1:55 AM 21.2 °F 10.1 °F 10.4 °F 63% 30.31 in 10.0 mi SSW 10.4 mph - N/A   Clear
2:15 AM 23.0 °F 11.1 °F 10.4 °F 59% 30.30 in 10.0 mi SSW 12.7 mph - N/A   Mostly Cloudy
2:35 AM 23.0 °F 12.4 °F 10.4 °F 59% 30.30 in 10.0 mi SSW 10.4 mph - N/A   Overcast
2:55 AM 24.8 °F 12.9 °F 10.4 °F 54% 30.28 in 10.0 mi SSW 13.8 mph - N/A   Overcast
3:15 AM 24.8 °F 14.0 °F 10.4 °F 54% 30.28 in 10.0 mi SSW 11.5 mph - N/A   Overcast
3:35 AM 24.8 °F 14.0 °F 10.4 °F 54% 30.26 in 10.0 mi SSW 11.5 mph - N/A   Overcast
3:55 AM 24.8 °F 14.0 °F 10.4 °F 54% 30.26 in 10.0 mi SW 11.5 mph - N/A   Overcast
4:15 AM 24.8 °F 13.4 °F 12.2 °F 59% 30.25 in 10.0 mi SW 12.7 mph - N/A   Overcast
4:35 AM 24.8 °F 13.4 °F 17.6 °F 74% 30.24 in 1.0 mi SW 12.7 mph 20.7 mph N/A   Overcast
4:55 AM 23.0 °F 13.9 °F 17.6 °F 80% 30.23 in 10.0 mi SSW 8.1 mph - N/A   Overcast
5:15 AM 24.8 °F 14.0 °F 15.8 °F 69% 30.21 in 10.0 mi SSW 11.5 mph - N/A   Overcast
5:35 AM 24.8 °F 12.9 °F 14.0 °F 64% 30.20 in 10.0 mi SSW 13.8 mph - N/A   Overcast
5:55 AM 26.6 °F 14.7 °F 14.0 °F 59% 30.20 in 10.0 mi SSW 15.0 mph - N/A   Overcast
6:15 AM 26.6 °F 15.2 °F 12.2 °F 55% 30.20 in 10.0 mi SW 13.8 mph 18.4 mph N/A   Overcast
6:35 AM 26.6 °F 15.2 °F 12.2 °F 55% 30.19 in 10.0 mi SW 13.8 mph 19.6 mph N/A   Mostly Cloudy
6:55 AM 26.6 °F 15.7 °F 12.2 °F 55% 30.20 in 10.0 mi SW 12.7 mph - N/A   Mostly Cloudy
7:15 AM 26.6 °F 15.7 °F 14.0 °F 59% 30.20 in 10.0 mi SW 12.7 mph - N/A   Overcast
7:35 AM 26.6 °F 14.3 °F 14.0 °F 59% 30.18 in 10.0 mi SW 16.1 mph - N/A   Mostly Cloudy
7:55 AM 26.6 °F 12.7 °F 15.8 °F 64% 30.18 in 7.0 mi SW 20.7 mph 27.6 mph N/A   Scattered Clouds
8:15 AM 26.6 °F 15.2 °F 17.6 °F 69% 30.18 in 10.0 mi SW 13.8 mph - N/A   Scattered Clouds
8:35 AM 26.6 °F 14.3 °F 15.8 °F 64% 30.18 in 10.0 mi SW 16.1 mph - N/A   Mostly Cloudy
8:55 AM 28.4 °F 15.4 °F 15.8 °F 59% 30.17 in 10.0 mi SW 19.6 mph - N/A   Scattered Clouds
9:15 AM 28.4 °F 15.4 °F 15.8 °F 59% 30.16 in 10.0 mi SW 19.6 mph - N/A   Scattered Clouds
9:35 AM 28.4 °F 14.7 °F 17.6 °F 64% 30.17 in 10.0 mi WSW 21.9 mph 27.6 mph N/A   Mostly Cloudy
9:55 AM 28.4 °F 15.8 °F 19.4 °F 69% 30.17 in 2.5 mi WSW 18.4 mph - N/A   Overcast
10:15 AM 28.4 °F 15.4 °F 21.2 °F 74% 30.17 in 1.8 mi SW 19.6 mph 23.0 mph N/A   Overcast
11:55 AM 28.4 °F 16.6 °F 23.0 °F 80% 30.13 in 3.0 mi SW 16.1 mph 20.7 mph N/A   Unknown
12:15 PM 28.4 °F 15.8 °F 23.0 °F 80% 30.12 in 8.0 mi WSW 18.4 mph 24.2 mph N/A   Mostly Cloudy
12:35 PM 28.4 °F 16.6 °F 23.0 °F 80% 30.12 in 10.0 mi SW 16.1 mph - N/A   Overcast
12:55 PM 30.2 °F 19.8 °F 23.0 °F 75% 30.12 in 10.0 mi WSW 13.8 mph 21.9 mph N/A   Overcast
1:15 PM 30.2 °F 20.2 °F 23.0 °F 75% 30.11 in 10.0 mi WSW 12.7 mph - N/A   Overcast
1:35 PM 30.2 °F 18.9 °F 23.0 °F 75% 30.10 in 10.0 mi WSW 16.1 mph - N/A   Scattered Clouds
1:55 PM 30.2 °F 19.3 °F 21.2 °F 69% 30.11 in 10.0 mi WSW 15.0 mph - N/A   Clear
2:15 PM 32.0 °F 22.5 °F 23.0 °F 69% 30.11 in 10.0 mi WSW 12.7 mph - N/A   Clear
2:35 PM 32.0 °F 21.2 °F 21.2 °F 64% 30.11 in 10.0 mi WSW 16.1 mph - N/A   Mostly Cloudy
2:55 PM 32.0 °F 21.6 °F 23.0 °F 69% 30.11 in 10.0 mi WSW 15.0 mph - N/A   Overcast
3:15 PM 33.8 °F 24.3 °F 21.2 °F 60% 30.11 in 10.0 mi WSW 13.8 mph - N/A   Overcast
3:35 PM 33.8 °F 25.3 °F 23.0 °F 65% 30.12 in 10.0 mi West 11.5 mph - N/A   Overcast
3:55 PM 33.8 °F 27.0 °F 24.8 °F 70% 30.12 in 10.0 mi West 8.1 mph - N/A   Overcast
4:15 PM 32.0 °F 25.6 °F 24.8 °F 75% 30.13 in 10.0 mi West 6.9 mph - N/A   Overcast
4:35 PM 32.0 °F 24.8 °F 24.8 °F 75% 30.13 in 10.0 mi West 8.1 mph - N/A   Overcast
4:55 PM 32.0 °F 25.6 °F 24.8 °F 75% 30.13 in 10.0 mi West 6.9 mph - N/A   Overcast
5:15 PM 32.0 °F 24.8 °F 24.8 °F 75% 30.13 in 10.0 mi West 8.1 mph - N/A   Overcast
5:35 PM 32.0 °F 25.6 °F 24.8 °F 75% 30.14 in 10.0 mi WSW 6.9 mph - N/A   Overcast
5:55 PM 32.0 °F 24.8 °F 24.8 °F 75% 30.14 in 10.0 mi West 8.1 mph - N/A   Overcast
6:15 PM 32.0 °F 23.6 °F 24.8 °F 75% 30.14 in 10.0 mi West 10.4 mph - N/A   Overcast
6:35 PM 32.0 °F 25.6 °F 24.8 °F 75% 30.14 in 10.0 mi West 6.9 mph - N/A   Overcast
6:55 PM 32.0 °F 26.4 °F 24.8 °F 75% 30.15 in 10.0 mi WSW 5.8 mph - N/A   Overcast
7:15 PM 30.2 °F 24.3 °F 24.8 °F 80% 30.15 in 10.0 mi WSW 5.8 mph - N/A   Overcast
7:35 PM 30.2 °F 23.4 °F 23.0 °F 75% 30.15 in 10.0 mi SW 6.9 mph - N/A   Scattered Clouds
7:55 PM 30.2 °F 23.4 °F 24.8 °F 80% 30.14 in 10.0 mi SW 6.9 mph - N/A   Mostly Cloudy
8:15 PM 30.2 °F 23.4 °F 24.8 °F 80% 30.15 in 10.0 mi SW 6.9 mph - N/A   Overcast
8:35 PM 30.2 °F 22.6 °F 24.8 °F 80% 30.14 in 10.0 mi WSW 8.1 mph - N/A   Overcast
8:55 PM 30.2 °F 21.9 °F 24.8 °F 80% 30.14 in 10.0 mi WSW 9.2 mph - N/A   Overcast
9:15 PM 30.2 °F 22.6 °F 24.8 °F 80% 30.14 in 10.0 mi WSW 8.1 mph - N/A   Overcast
9:35 PM 32.0 °F 24.8 °F 24.8 °F 75% 30.14 in 10.0 mi WSW 8.1 mph - N/A   Overcast
9:55 PM 32.0 °F 24.2 °F 24.8 °F 75% 30.14 in 10.0 mi WSW 9.2 mph - N/A   Overcast
10:15 PM 32.0 °F 23.6 °F 24.8 °F 75% 30.14 in 10.0 mi West 10.4 mph - N/A   Overcast
10:35 PM 30.2 °F 21.3 °F 24.8 °F 80% 30.13 in 10.0 mi West 10.4 mph - N/A   Overcast
10:55 PM 30.2 °F 21.9 °F 24.8 °F 80% 30.12 in 10.0 mi West 9.2 mph - N/A   Overcast
11:15 PM 30.2 °F 22.6 °F 24.8 °F 80% 30.12 in 10.0 mi West 8.1 mph - N/A   Overcast
11:35 PM 28.4 °F 21.2 °F 21.2 °F 74% 30.11 in 10.0 mi West 6.9 mph - N/A   Mostly Cloudy
11:55 PM 26.6 °F 18.2 °F 21.2 °F 80% 30.10 in 10.0 mi West 8.1 mph - N/A   Scattered Clouds